Location: Bon Acre
(42.6442°N, 73.5758°W)
Time: 02:26:32
(UTC+00:00)

SL-08 R/B - Pass Details

Date: 15 March 2026
Orbit: 946 x 992 km, 83.0° (Epoch: 13 April)

Event Time Altitude Azimuth Distance (km) Brightness Sun altitude
Exits shadow 00:41:38 20° 59° (ENE) 2,054 5.8 -19.4°
Drops below altitude 10° 00:44:21 10° 34° (NE) 2,674 6.6 -19.9°
Sets 00:47:21 0° 21° (NNE) 3,623 7.4 -20.4°
